TimeCST,TemperatureF,Dew PointF,Humidity,Sea Level PressureIn,VisibilityMPH,Wind Direction,Wind SpeedMPH,Gust SpeedMPH,PrecipitationIn,Events,Conditions,WindDirDegrees,DateUTC
12:53 AM,12.9,10.0,88,30.24,10.0,Calm,Calm,-,N/A,,Clear,0,2013-03-03 06:53:00
1:53 AM,17.1,12.0,81,30.22,10.0,Calm,Calm,-,N/A,,Clear,0,2013-03-03 07:53:00
2:53 AM,10.9,10.0,96,30.19,10.0,South,4.6,-,N/A,,Clear,190,2013-03-03 08:53:00
3:53 AM,16.0,10.9,81,30.18,10.0,South,3.5,-,N/A,,Clear,190,2013-03-03 09:53:00
4:53 AM,12.0,9.0,88,30.18,10.0,SSW,4.6,-,N/A,,Clear,210,2013-03-03 10:53:00
5:53 AM,17.1,12.0,81,30.17,10.0,SSE,3.5,-,N/A,,Clear,160,2013-03-03 11:53:00
6:53 AM,16.0,12.0,84,30.17,10.0,SSW,4.6,-,N/A,,Clear,200,2013-03-03 12:53:00
7:53 AM,19.0,16.0,88,30.18,10.0,SSW,6.9,-,N/A,,Partly Cloudy,200,2013-03-03 13:53:00
8:53 AM,25.0,18.0,75,30.18,10.0,South,6.9,-,N/A,,Overcast,180,2013-03-03 14:53:00
9:53 AM,28.0,19.0,69,30.16,10.0,SE,5.8,-,N/A,,Overcast,140,2013-03-03 15:53:00
10:53 AM,30.9,19.0,61,30.15,10.0,SSE,3.5,-,N/A,,Mostly Cloudy,150,2013-03-03 16:53:00
11:53 AM,35.1,18.0,50,30.11,10.0,SSE,8.1,-,N/A,,Overcast,160,2013-03-03 17:53:00
12:53 PM,37.0,18.0,46,30.09,10.0,SE,5.8,-,N/A,,Overcast,140,2013-03-03 18:53:00
1:53 PM,37.0,21.0,52,30.04,10.0,SE,8.1,-,N/A,,Overcast,140,2013-03-03 19:53:00
2:53 PM,39.9,23.0,51,30.03,10.0,ESE,10.4,-,N/A,,Overcast,120,2013-03-03 20:53:00
3:53 PM,39.0,21.0,49,30.00,10.0,SE,10.4,-,N/A,,Overcast,130,2013-03-03 21:53:00
4:53 PM,39.0,23.0,53,29.99,10.0,ESE,11.5,-,N/A,,Overcast,110,2013-03-03 22:53:00
5:53 PM,37.9,21.0,51,29.98,10.0,ESE,10.4,-,N/A,,Mostly Cloudy,120,2013-03-03 23:53:00
6:53 PM,37.0,21.9,54,29.99,10.0,ESE,9.2,-,N/A,,Overcast,120,2013-03-04 00:53:00
7:53 PM,37.0,21.9,54,29.98,10.0,ESE,11.5,-,N/A,,Mostly Cloudy,110,2013-03-04 01:53:00
8:53 PM,37.0,21.0,52,29.97,10.0,SE,10.4,-,N/A,,Clear,130,2013-03-04 02:53:00
9:53 PM,37.0,21.9,54,29.96,10.0,SE,13.8,-,N/A,,Clear,140,2013-03-04 03:53:00
10:53 PM,36.0,23.0,59,29.95,10.0,SE,13.8,21.9,N/A,,Mostly Cloudy,140,2013-03-04 04:53:00
11:53 PM,35.1,25.0,67,29.94,10.0,SE,11.5,-,N/A,,Clear,140,2013-03-04 05:53:00